TimeCDT,TemperatureF,Dew PointF,Humidity,Sea Level PressureIn,VisibilityMPH,Wind Direction,Wind SpeedMPH,Gust SpeedMPH,PrecipitationIn,Events,Conditions,WindDirDegrees,DateUTC
12:55 AM,39.4,30.2,70,30.26,10.0,NNW,6.9,-,N/A,,Clear,330,2011-11-04 05:55:00
1:55 AM,36.9,30.0,76,30.27,10.0,NNW,6.9,-,N/A,,Clear,340,2011-11-04 06:55:00
2:55 AM,36.3,30.0,78,30.27,10.0,NNW,8.1,-,N/A,,Clear,340,2011-11-04 07:55:00
3:55 AM,33.1,29.7,87,30.25,10.0,North,8.1,-,N/A,,Clear,10,2011-11-04 08:55:00
4:55 AM,31.6,29.1,90,30.26,10.0,Calm,Calm,-,N/A,,Clear,0,2011-11-04 09:55:00
5:55 AM,32.2,29.7,90,30.27,10.0,NE,3.5,-,N/A,,Clear,40,2011-11-04 10:55:00
6:55 AM,29.5,28.6,96,30.28,10.0,Calm,Calm,-,N/A,,Clear,0,2011-11-04 11:55:00
7:55 AM,30.0,29.5,98,30.28,10.0,Calm,Calm,-,N/A,,Clear,0,2011-11-04 12:55:00
8:43 AM,33.8,32.0,93,30.29,10.0,Calm,Calm,-,N/A,,Mostly Cloudy,0,2011-11-04 13:43:00
8:55 AM,34.7,32.7,92,30.30,10.0,Calm,Calm,-,N/A,,Mostly Cloudy,0,2011-11-04 13:55:00
9:55 AM,37.2,34.9,91,30.31,10.0,West,5.8,-,N/A,,Overcast,280,2011-11-04 14:55:00
10:55 AM,40.6,37.6,89,30.30,10.0,ENE,3.5,-,N/A,,Overcast,70,2011-11-04 15:55:00
11:55 AM,44.4,40.3,85,30.29,10.0,ESE,8.1,-,N/A,,Mostly Cloudy,110,2011-11-04 16:55:00
12:55 PM,49.1,41.9,76,30.26,10.0,ESE,8.1,-,N/A,,Scattered Clouds,120,2011-11-04 17:55:00
1:55 PM,52.0,42.4,70,30.24,10.0,Variable,5.8,-,N/A,,Mostly Cloudy,0,2011-11-04 18:55:00
2:55 PM,54.1,43.2,66,30.21,10.0,ESE,5.8,-,N/A,,Mostly Cloudy,110,2011-11-04 19:55:00
3:55 PM,55.8,43.9,64,30.18,10.0,Variable,4.6,-,N/A,,Clear,0,2011-11-04 20:55:00
4:55 PM,55.9,44.1,64,30.17,10.0,East,8.1,-,N/A,,Clear,100,2011-11-04 21:55:00
5:55 PM,52.9,44.6,73,30.16,10.0,ESE,5.8,-,N/A,,Clear,110,2011-11-04 22:55:00
6:55 PM,49.1,43.5,81,30.16,10.0,ESE,4.6,-,N/A,,Clear,110,2011-11-04 23:55:00
7:55 PM,46.8,43.2,87,30.16,10.0,ESE,4.6,-,N/A,,Clear,120,2011-11-05 00:55:00
8:55 PM,44.6,43.0,94,30.15,10.0,SE,5.8,-,N/A,,Clear,130,2011-11-05 01:55:00
9:55 PM,43.9,43.2,97,30.15,10.0,SE,5.8,-,N/A,,Clear,130,2011-11-05 02:55:00
10:55 PM,44.8,43.5,95,30.15,10.0,SE,6.9,-,N/A,,Clear,130,2011-11-05 03:55:00
11:55 PM,44.8,43.5,95,30.13,10.0,SE,6.9,-,N/A,,Clear,140,2011-11-05 04:55:00